Location: Basse Linah
(48.4167°N, 5.0000°W)
Time: 23:20:36
(UTC+00:00)

Daily predictions for brighter satellites

Satellite Brightness Start Highest point End
(mag) Time Altitude Azimuth Time Altitude Azimuth Time Altitude Azimuth
Cosmos 2285 Rocket 4.4 18:14:37 10° NNW 18:20:42 45° ENE 18:26:47 10° SE
PSLV R/B 3.8 18:19:35 10° SSE 18:23:08 51° ENE 18:26:43 10° N
Cosmos 1726 2.7 18:20:09 10° SSE 18:23:27 33° E 18:26:46 10° NNE
Cosmos 2322 Rocket 3.7 18:20:20 10° SE 18:23:32 15° E 18:26:45 10° ENE
CZ-4 R/B 4.4 18:22:26 10° SSE 18:26:31 71° ENE 18:30:37 10° N
Cosmos 841 Rocket 3.5 18:22:21 10° NNW 18:27:34 90° WSW 18:32:42 10° SSE
CZ-2C R/B 4.4 18:23:05 10° N 18:28:11 38° WNW 18:33:18 10° SW
Cosmos 1470 4.4 18:26:25 10° ESE 18:28:23 14° E 18:30:21 10° NE
Cosmos 1980 Rocket 2.2 18:23:19 10° SSW 18:28:56 80° ESE 18:34:35 10° NNE
Cosmos 1378 Rocket 3.7 18:24:49 10° N 18:29:07 52° ENE 18:33:21 10° SSE
CZ-4B R/B 3.4 18:24:18 10° SE 18:29:30 51° ENE 18:34:49 10° N
Timation 2 Rocket 4.0 18:23:58 10° NNW 18:30:29 85° ENE 18:36:40 10° SSE
ARGOS Delta rocket 4.3 18:26:27 10° NNE 18:31:27 43° E 18:36:11 10° SSE
DMSP B5D2-2 4.1 18:27:04 10° NNE 18:32:22 74° ESE 18:37:38 10° S
Meteor 2-14 Rocket 4.5 18:34:12 10° S 18:40:07 59° E 18:46:04 10° NNE
Cosmos 1733 Rocket 3.1 18:37:53 10° S 18:42:19 87° W 18:46:49 10° N
Cosmos 1850 Rocket 4.0 18:37:16 10° SSW 18:42:30 88° ESE 18:47:49 10° NNE
USA 215 3.3 18:39:04 10° NE 18:45:38 88° NNW 18:52:11 10° WSW
Cosmos 2369 4.0 18:40:55 10° SW 18:46:38 74° WNW 18:52:23 10° NNE
Cosmos 2221 Rocket 3.8 18:42:38 10° NNW 18:47:11 78° W 18:51:43 10° S
COBE Rocket 3.8 18:42:47 10° SSE 18:47:35 68° ENE 18:52:18 10° N
Cosmos 2279 Rocket 4.4 18:41:23 10° NNW 18:47:38 72° W 18:53:51 10° S
Cosmos 1844 Rocket 3.6 18:43:39 10° NNW 18:48:42 31° NE 18:52:59 13° ESE
Cosmos 2278 3.7 18:46:44 10° SSW 18:52:22 69° ESE 18:58:02 10° NNE
SL-16 R/B 2.7 18:48:14 10° S 18:53:20 36° ESE 18:58:26 10° NE
Cosmos 1570 Rocket 4.1 18:49:13 10° NNW 18:54:26 57° ENE 18:59:34 10° SE
PAYLOAD B 4.5 18:50:04 10° S 18:55:34 75° WSW 19:01:06 10° NNW
Cosmos 1092 Rocket 4.5 18:51:12 10° SSE 18:56:52 37° E 19:02:32 10° NNE
Resurs 01 Rocket 3.6 19:01:19 11° ENE 19:01:38 11° NE 19:03:06 10° NE
COSMO-SKYMED 1 3.3 18:58:03 10° N 19:02:19 56° WNW 19:06:34 10° SSW
Cosmos 2278 Rocket 4.3 19:01:21 10° N 19:02:47 11° NNE 19:04:13 10° NE
Meteor 2-21 Rocket 4.4 18:56:53 10° S 19:02:49 62° E 19:08:47 10° NNE
SJ-6B 3.9 19:02:07 19° E 19:03:32 24° ENE 19:06:39 10° N
HJ-1C 3.0 19:01:32 10° SSE 19:04:38 79° ENE 19:07:45 10° N
Gbstr 26 Del rocket 4.5 18:57:31 10° WSW 19:05:02 86° SSE 19:12:38 13° ENE
Cosmos 1437 Rocket 2.8 19:02:08 10° S 19:05:43 46° E 19:09:19 10° NNE
H-2A R/B 4.3 19:07:12 12° NE 19:07:12 12° NE 19:08:36 10° NNE
Cosmos 2263 Rocket 3.0 19:02:33 10° NW 19:08:06 55° WSW 19:13:37 10° S
Spot 1 4.1 19:04:43 10° NNE 19:08:56 80° WNW 19:13:00 10° SSW
Meteor 1-24 Rocket 3.8 19:04:57 10° N 19:10:07 50° ENE 19:15:20 10° SSE
ASTEX 1 4.1 19:05:50 10° N 19:10:43 58° W 19:15:37 10° SSW
SL-4 R/B 2.8 19:10:06 10° WNW 19:14:26 52° SSW 19:17:51 17° SE
IRIDIUM 104 4.3 19:10:50 10° S 19:16:03 88° W 19:21:19 10° N
Meteor 2-16 Rocket 4.4 19:10:43 10° S 19:16:46 67° E 19:22:53 10° NNE
Feng Yun 1-1 Rocket 4.1 19:11:57 10° SSE 19:17:24 76° ENE 19:22:49 10° NNW
Cosmos 2084 Rocket 3.2 19:14:09 10° NW 19:17:57 61° NE 19:19:51 28° ESE
Cosmos 1814 Rocket 4.4 19:12:48 10° NNW 19:18:01 67° WSW 19:23:08 10° S
ISS -1.1 19:19:13 10° W 19:21:24 16° SW 19:23:34 10° S
USA 267 3.8 19:15:14 10° SE 19:21:38 55° SW 19:28:05 10° WNW
Okean-O 3.2 19:20:29 25° ESE 19:22:18 37° ENE 19:26:24 10° N
Cosmos 2208 Rocket 4.0 19:17:43 10° NNW 19:23:08 78° ENE 19:28:16 12° SSE
Cosmos 1844 4.1 19:18:06 10° NNW 19:23:26 44° NE 19:26:12 25° ESE
CZ-4 R/B 1.5 19:19:19 10° SSE 19:23:30 85° WSW 19:27:43 10° NNW
OBJECT-B 1.3 19:24:56 30° NNE 19:24:56 30° NNE 19:26:34 10° N
IGS 5A 3.9 19:24:37 29° ESE 19:26:09 41° ENE 19:30:03 10° N
DNEPR-1 R/B 4.4 19:22:24 10° S 19:26:41 37° ESE 19:30:36 15° NE
Meteor 1-22 Rocket 4.1 19:22:46 10° S 19:28:06 62° E 19:33:41 10° NNE
Cosmos 1300 Rocket 4.1 19:30:15 33° ESE 19:30:38 34° E 19:34:35 10° NNE
Cosmos 1908 Rocket 3.6 19:26:24 10° SSW 19:30:44 77° WNW 19:35:05 10° N
Cosmos 1428 Rocket 4.4 19:26:13 10° S 19:32:20 66° E 19:38:32 10° NNE
CSL-04 Debris 4.2 19:28:02 15° SSE 19:32:27 61° ENE 19:37:46 10° N
Cosmos 1627 Rocket 4.4 19:29:48 10° S 19:35:48 63° E 19:41:52 10° NNE
Cosmos 2195 Rocket 4.4 19:29:52 10° S 19:36:04 73° E 19:42:22 10° NNE
Cosmos 1766 4.5 19:33:20 10° SSW 19:37:05 44° WNW 19:40:53 10° N
Cosmos 2360 Rocket 2.6 19:32:41 10° S 19:37:50 38° ESE 19:43:00 10° NE
Cosmos 1782 Rocket 3.4 19:34:36 10° S 19:38:55 71° E 19:43:17 10° NNE
USA 81 4.0 19:33:41 10° N 19:38:57 65° E 19:43:22 15° SSE
Cosmos 1025 Rocket 2.9 19:38:38 10° N 19:42:57 69° E 19:44:51 32° SSE
YAOGAN 1 3.9 19:39:02 10° SSW 19:43:05 39° W 19:47:10 10° NNW
Okean O Rocket 2.7 19:43:01 10° S 19:47:11 44° W 19:51:24 10° NNW
Cosmos 968 Rocket 3.7 19:43:41 10° SSW 19:48:56 74° WNW 19:54:12 10° NNE
Lacrosse 4 Rocket 1.3 19:46:00 10° SSW 19:50:00 59° ESE 19:50:18 57° E
Cosmos 2026 Rocket 3.8 19:46:17 10° S 19:52:20 81° E 19:58:26 10° N
USA 186 1.8 19:55:51 77° SW 19:55:58 78° WSW 19:59:21 10° NNW
ATLAS 2AS CENTAUR R/B 4.3 19:51:41 10° NW 19:57:36 25° N 20:01:35 16° NE
Meteor 2-5 Rocket 4.1 19:52:47 10° NNW 19:58:15 61° W 20:03:41 10° S
CSL-04 Rocket 3.5 19:55:05 25° SSE 19:58:22 86° ENE 20:03:49 10° NNW
BREEZE-M R/B 3.7 19:56:36 10° SW 19:58:02 39° SW 19:58:02 39° SW
Cosmos 1553 Rocket 4.0 19:57:19 10° N 20:03:41 68° ENE 20:06:33 34° SSE
Cosmos 1470 3.5 20:00:07 10° SSW 20:03:52 52° WNW 20:07:38 10° N
Landsat 7 3.7 20:04:06 59° SE 20:04:50 71° ENE 20:09:33 10° N
deb Chang Zheng 4 4.0 20:05:56 43° NNE 20:05:56 43° NNE 20:09:09 10° N
Cosmos 2322 Rocket 2.1 20:01:02 10° SSW 20:06:45 89° ESE 20:12:30 10° NNE
Cosmos 2237 4.1 20:01:51 10° SSW 20:07:34 88° WNW 20:13:19 10° NNE
SPOT 1/Viking Rocket 3.9 20:07:53 44° ENE 20:07:53 44° ENE 20:12:33 10° N
Cosmos 1975 Rocket 3.4 20:03:51 10° NNW 20:08:13 63° W 20:10:19 29° SSW
NOSS 3-4 (A) 4.3 20:03:34 10° NW 20:10:00 46° NE 20:12:04 37° ENE
NOSS 3-4 (C) 4.3 20:03:40 10° NW 20:10:06 45° NE 20:12:10 37° ENE
Cosmos 1980 Rocket 4.4 20:09:11 10° W 20:13:36 23° NW 20:18:03 10° N
Ariane Rocket 4.1 20:16:26 30° NE 20:16:26 30° NE 20:19:54 10° N
NOSS 3-3 (A) 3.8 20:14:50 10° SSW 20:20:03 59° SE 20:20:03 59° SE
NOSS 3-3 (C) 3.8 20:14:57 10° SSW 20:19:58 57° SE 20:19:58 57° SE
Aureole 1 Rocket 4.0 20:17:36 10° S 20:24:53 62° ESE 20:30:40 10° NNE
IRS-1C Rocket 4.4 20:24:43 37° S 20:26:45 65° WSW 20:32:00 10° NNW
USA 281 4.3 20:27:40 28° NE 20:28:04 28° NE 20:33:28 10° N
USA 215 4.0 20:24:15 21° NE 20:28:20 48° NNW 20:34:33 10° W
Landsat 5 4.5 20:27:12 10° N 20:31:34 50° WNW 20:35:51 10° SW
Cosmos 1844 Rocket 3.3 20:27:21 10° NW 20:32:53 54° WSW 20:34:40 39° SSW
SL-16 R/B 3.3 20:31:56 10° SW 20:37:20 44° NW 20:42:47 10° NNE
Resurs 01 Rocket 2.6 20:38:52 41° N 20:38:52 41° N 20:41:49 10° N
SJ-6B 4.4 20:37:38 29° WSW 20:37:59 29° W 20:41:22 10° NNW
Cosmos 2315 Rocket 4.5 20:32:43 10° N 20:37:56 45° NE 20:37:56 45° NE
Cosmos 1943 Rocket 4.2 20:36:16 10° N 20:38:59 15° NNE 20:38:59 15° NNE
Terra 4.1 20:42:42 14° NNE 20:42:42 14° NNE 20:43:35 10° NNE
H-2A R/B 4.0 20:43:40 30° NNW 20:43:40 30° NNW 20:45:41 10° NNW
Cosmos 2278 Rocket 3.3 20:43:29 10° NNW 20:47:32 32° NNE 20:47:32 32° NNE
IRS-1A Rocket 4.4 20:58:18 75° NW 20:58:18 75° NW 21:03:37 10° NNW
Okean-O 4.4 20:58:03 25° WSW 20:58:51 27° W 21:02:38 10° NW
Cosmos 2266 Rocket 4.3 21:11:31 62° N 21:11:31 62° N 21:16:46 10° N
Cosmos 1655 Rocket 4.5 21:13:41 52° N 21:13:41 52° N 21:18:21 10° N
Cosmos 2333 Rocket 4.4 21:18:31 14° NNE 21:18:31 14° NNE 21:19:20 10° NNE
S3M 4.3 21:08:44 10° NNW 21:14:52 62° W 21:14:52 62° W
Cosmos 2360 Rocket 3.3 21:16:28 10° WSW 21:21:48 41° NW 21:27:09 10° NNE
Lacrosse 4 Rocket 4.2 21:25:46 10° W 21:26:39 14° W 21:26:39 14° W
ATLAS 2AS CENTAUR R/B 3.6 21:43:27 10° NW 21:49:00 42° N 21:49:00 42° N
Cosmos 2322 Rocket 4.4 21:47:15 10° W 21:51:36 22° NW 21:55:56 10° N
USA 215 4.2 22:11:36 41° NNW 22:11:36 41° NNW 22:16:45 10° WNW
USA 281 4.2 22:14:33 41° NW 22:14:33 41° NW 22:18:36 10° NNW
Cosmos 1943 Rocket 4.4 22:18:52 10° NNW 22:20:29 19° NNW 22:20:29 19° NNW
Cosmos 2278 Rocket 4.4 22:27:32 10° NW 22:29:22 20° NW 22:29:22 20° NW
